This demonstration page uses our WeatherBlox Daily Observations layout. Learn more.

Left ArrowRight Arrow

Hourly Observations for May 12, 2019

Temp ( °F °C ) Dew Point ( °F °C ) Humidity (%) Winds ( mph kmh ) Pressure ( in mb ) Visibility ( mi km ) Precip ( " mm )
12:15 am 00:15 Clear 44 6.6 41 5 90 90 NW 7 11 29.91 1013 10 16 N/A
12:35 am 00:35 Partly Cloudy 44 6.5 40 4.7 88 88 NW 7 11 29.91 1013 10 16 N/A
12:55 am 00:55 Clear 42 5.8 40 4.5 91 91 NW 7 11 29.92 1013 10 16 N/A
1:15 am 01:15 Clear 42 5.8 40 4.3 90 90 WNW 6 9 29.92 1013 10 16 N/A
1:35 am 01:35 Clear 42 5.6 40 4.2 91 91 WNW 6 9 29.92 1013 10 16 N/A
1:55 am 01:55 Clear 41 5.2 39 3.8 91 91 WNW 5 7 29.93 1013 10 16 N/A
2:15 am 02:15 Partly Cloudy 42 5.4 39 4 91 91 WNW 6 9 29.91 1013 10 16 N/A
2:35 am 02:35 Partly Cloudy 41 5.1 39 3.8 91 91 WNW 6 9 29.91 1013 10 16 N/A
2:55 am 02:55 Partly Cloudy 42 5.3 39 3.7 90 90 WNW 7 11 29.91 1013 10 16 N/A
3:15 am 03:15 Partly Cloudy 41 4.8 38 3.5 91 91 WNW 7 11 29.91 1013 10 16 N/A
3:35 am 03:35 Mostly Cloudy 40 4.7 38 3.4 91 91 WNW 6 9 29.91 1013 10 16 N/A
3:55 am 03:55 Partly Cloudy 41 5 38 3.6 91 91 WNW 6 9 29.91 1013 10 16 N/A
4:15 am 04:15 Clear 40 4.5 38 3.4 93 93 WNW 5 7 29.91 1013 10 16 N/A
4:35 am 04:35 Partly Cloudy 39 3.7 37 3 95 95 W 6 9 29.92 1013 10 16 N/A
4:55 am 04:55 Partly Cloudy 40 4.6 38 3.6 93 93 W 6 9 29.91 1013 10 16 N/A
5:15 am 05:15 Partly Cloudy 41 4.9 39 3.7 92 92 W 6 9 29.90 1012 10 16 N/A
5:35 am 05:35 Partly Cloudy 40 4.6 38 3.5 93 93 WNW 6 9 29.91 1013 10 16 N/A
5:55 am 05:55 Cloudy 41 4.8 39 3.7 93 93 WNW 7 11 29.91 1013 10 16 N/A
6:15 am 06:15 Mostly Cloudy 41 4.8 39 3.9 94 94 WNW 7 11 29.91 1013 10 16 N/A
6:35 am 06:35 Partly Cloudy 40 4.7 39 3.9 95 95 NW 7 11 29.91 1013 10 16 N/A
6:55 am 06:55 Sunny 42 5.3 39 4.1 92 92 NW 9 15 29.91 1013 10 16 N/A
7:15 am 07:15 Sunny 42 5.7 40 4.5 92 92 NW 8 13 29.90 1013 10 16 N/A
7:35 am 07:35 Sunny 43 6.2 41 4.9 91 91 WNW 9 15 29.91 1013 10 16 N/A
7:55 am 07:55 Sunny 44 6.9 42 5.3 90 90 NW 9 15 29.90 1013 10 16 N/A
8:15 am 08:15 Sunny 47 8.1 42 5.3 83 83 NW 13 20 29.90 1013 10 16 N/A
8:35 am 08:35 Sunny 48 8.7 42 5.4 80 80 NNW 10 17 29.89 1012 10 16 N/A
8:55 am 08:55 Sunny 49 9.5 42 5.5 76 76 NNW 13 20 29.89 1012 10 16 N/A
9:15 am 09:15 Sunny 50 10.1 42 5.7 74 74 NW 14 22 29.87 1012 10 16 N/A
9:35 am 09:35 Sunny 51 10.8 42 5.3 69 69 NW 14 22 29.87 1011 10 16 N/A
9:55 am 09:55 Sunny 53 11.5 42 5.5 67 67 NW 15 24 29.86 1011 10 16 N/A
10:15 am 10:15 Sunny 53 11.9 41 5.1 63 63 NW 16 26 29.86 1011 10 16 N/A
10:35 am 10:35 Sunny 54 12.3 42 5.6 64 64 NW 12 19 29.85 1011 10 16 N/A
10:55 am 10:55 Sunny 55 12.8 42 5.7 62 62 NW 13 20 29.86 1011 10 16 N/A
11:15 am 11:15 Partly Cloudy 56 13.6 42 5.6 59 59 NW 12 19 29.85 1011 10 16 N/A
11:35 am 11:35 Partly Cloudy 57 14 42 5.7 58 58 NW 15 24 29.85 1011 10 16 N/A
11:55 am 11:55 Partly Cloudy 58 14.5 42 5.6 55 55 NW 15 24 29.83 1010 10 16 N/A
12:15 pm 12:15 Sunny 58 14.5 41 5.1 54 54 NW 14 22 29.83 1010 10 16 N/A
12:35 pm 12:35 Sunny 60 15.3 42 5.6 53 53 NW 15 24 29.83 1010 10 16 N/A
12:55 pm 12:55 Sunny 60 15.8 42 5.8 52 52 NNW 10 17 29.82 1010 10 16 N/A
1:15 pm 13:15 Partly Cloudy 60 15.8 42 5.3 50 50 NW 10 17 29.81 1010 10 16 N/A
1:35 pm 13:35 Partly Cloudy 62 16.4 42 5.5 49 49 NNW 10 17 29.81 1009 10 16 N/A
1:55 pm 13:55 Partly Cloudy 63 17 42 5.5 47 47 NW 13 20 29.79 1009 10 16 N/A
2:15 pm 14:15 Mostly Cloudy 62 16.5 41 4.9 46 46 NW 10 17 29.81 1009 10 16 N/A
2:35 pm 14:35 Mostly Cloudy 62 16.5 39 4 44 44 N 10 17 29.81 1009 10 16 N/A
2:55 pm 14:55 Mostly Cloudy 63 17.1 40 4.4 43 43 N 10 17 29.80 1009 10 16 N/A
3:15 pm 15:15 Mostly Cloudy 63 17 41 5.1 46 46 N 8 13 29.80 1009 10 16 N/A
3:35 pm 15:35 Mostly Cloudy 63 17.4 41 5.2 45 45 N 10 17 29.80 1009 10 16 N/A
3:55 pm 15:55 Mostly Cloudy 64 17.5 38 3.6 40 40 N 10 17 29.80 1009 10 16 N/A
4:15 pm 16:15 Mostly Cloudy 64 17.9 40 4.2 40 40 NW 10 17 29.79 1009 10 16 N/A
4:35 pm 16:35 Mostly Cloudy 66 18.7 40 4.3 39 39 WNW 8 13 29.78 1008 10 16 N/A
4:55 pm 16:55 Mostly Cloudy 64 17.8 39 4.1 40 40 NNE 13 20 29.79 1009 10 16 N/A
5:15 pm 17:15 Mostly Cloudy 63 17 40 4.2 43 43 NNE 7 11 29.78 1009 10 16 N/A
5:35 pm 17:35 Mostly Cloudy 64 17.8 39 3.8 40 40 N 8 13 29.79 1009 10 16 N/A
5:55 pm 17:55 Mostly Cloudy 64 18 40 4.3 40 40 NE 7 11 29.78 1009 10 16 N/A
6:15 pm 18:15 Partly Cloudy 64 18 39 3.8 39 39 N 7 11 29.78 1009 10 16 N/A
6:35 pm 18:35 Partly Cloudy 64 17.8 39 3.9 40 40 NE 5 7 29.79 1009 10 16 N/A
6:55 pm 18:55 Sunny 64 17.6 41 4.9 43 43 NNE 7 11 29.79 1009 10 16 N/A
7:15 pm 19:15 Sunny 63 17.3 39 3.8 41 41 NNE 3 6 29.79 1009 10 16 N/A
7:35 pm 19:35 Sunny 64 17.5 38 3.2 39 39 N 3 6 29.79 1009 10 16 N/A
7:55 pm 19:55 Sunny 61 16.1 42 5.7 50 50 NNE 6 9 29.80 1009 10 16 N/A
8:15 pm 20:15 Sunny 59 15 43 6 55 55 ENE 5 7 29.82 1010 10 16 N/A
8:35 pm 20:35 Sunny 58 14.5 42 5.7 56 56 E 5 7 29.82 1010 10 16 N/A
8:55 pm 20:55 Clear 57 13.8 43 5.9 59 59 ESE 3 6 29.83 1010 10 16 N/A
9:15 pm 21:15 Clear 53 11.4 43 6.1 70 70 E 5 7 29.86 1011 10 16 N/A
9:35 pm 21:35 Clear 53 11.6 42 5.8 68 68 E 8 13 29.86 1011 10 16 N/A
9:55 pm 21:55 Clear 48 9.1 43 6 81 81 SE 6 9 29.89 1012 10 16 N/A
10:15 pm 22:15 Clear 47 8.5 41 5.1 79 79 SE 7 11 29.90 1012 10 16 N/A
10:35 pm 22:35 Clear 49 9.2 43 6.1 81 81 SE 7 11 29.90 1013 10 16 N/A
10:55 pm 22:55 Clear 48 8.8 44 6.5 86 86 SE 6 9 29.90 1013 10 16 N/A
11:15 pm 23:15 Clear 48 8.8 44 6.6 86 86 SSE 6 9 29.90 1013 10 16 N/A
11:35 pm 23:35 Clear 48 9 44 6.8 86 86 SSE 6 9 29.90 1013 10 16 N/A
11:55 pm 23:55 Clear 48 8.8 44 6.7 87 87 SSE 7 11 29.90 1013 10 16 N/A

Powered by AerisWeather